Location: *
(28.3744°N, 81.5492°W)
Time: 04:21:47
(UTC+00:00)

AQUA - Pass Details

Date: 15 June 2025
Orbit: 688 x 690 km, 98.4° (Epoch: 11 July)

Event Time Altitude Azimuth Distance (km) Brightness Sun altitude
Rises 08:53:46 0° 1° (N) 3,057 7.7 -18.2°
Reaches altitude 10° 08:56:08 10° 353° (N) 2,138 6.7 -17.8°
Maximum altitude 09:00:24 36° 287° (WNW) 1,081 4.5 -17.1°
Enters shadow 09:01:55 29° 249° (WSW) 1,264 4.6 -16.8°
